| time (UTC) | temp F | wind direction | speed knots | gust knots | rain 1hr in | rain 24hr in | rain mn in | humidity % | barometer mb |
| 20260506124551 | 75 | 192 | 0.9 | 1.7 | 0.00 | 0.00 | 0.00 | 96 | 1009.8 |
| 20260506124049 | 75 | 151 | 0.9 | 1.7 | 0.00 | 0.00 | 0.00 | 96 | 1009.9 |
| 20260506123546 | 75 | 114 | 2.6 | 3.5 | 0.00 | 0.00 | 0.00 | 96 | 1009.7 |
| 20260506123045 | 75 | 144 | 3.5 | 5.2 | 0.00 | 0.00 | 0.00 | 96 | 1009.6 |
| 20260506122541 | 75 | 128 | 0.9 | 1.7 | 0.00 | 0.00 | 0.00 | 96 | 1009.6 |
| 20260506122039 | 75 | 148 | 3.5 | 3.5 | 0.00 | 0.00 | 0.00 | 96 | 1009.6 |
| 20260506121536 | 75 | 156 | 2.6 | 3.5 | 0.00 | 0.00 | 0.00 | 96 | 1009.6 |
| 20260506121032 | 75 | 130 | 0.9 | 1.7 | 0.00 | 0.00 | 0.00 | 96 | 1009.5 |
| 20260506120531 | 74 | 127 | 1.7 | 2.6 | 0.00 | 0.00 | 0.00 | 96 | 1009.6 |
| 20260506120028 | 74 | 135 | 1.7 | 3.5 | 0.00 | 0.00 | 0.00 | 96 | 1009.5 |
| 20260506115526 | 74 | 125 | 0.9 | 1.7 | 0.00 | 0.00 | 0.00 | 96 | 1009.5 |
| 20260506115024 | 74 | 144 | 1.7 | 3.5 | 0.00 | 0.00 | 0.00 | 96 | 1009.3 |
| 20260506114521 | 74 | 127 | 0.9 | 2.6 | 0.00 | 0.00 | 0.00 | 96 | 1009.3 |
| 20260506114019 | 74 | 120 | 3.5 | 5.2 | 0.00 | 0.00 | 0.00 | 97 | 1009.5 |
| 20260506113517 | 74 | 127 | 1.7 | 6.1 | 0.00 | 0.00 | 0.00 | 97 | 1009.3 |
| 20260506113014 | 74 | 130 | 1.7 | 2.6 | 0.00 | 0.00 | 0.00 | 97 | 1009.1 |
| 20260506112510 | 74 | 142 | 0.0 | 1.7 | 0.00 | 0.00 | 0.00 | 97 | 1009.1 |
| 20260506112008 | 74 | 142 | 1.7 | 5.2 | 0.00 | 0.00 | 0.00 | 97 | 1009.2 |
| 20260506111506 | 74 | 155 | 1.7 | 3.5 | 0.00 | 0.00 | 0.00 | 97 | 1009.2 |
| 20260506111002 | 74 | 135 | 1.7 | 2.6 | 0.00 | 0.00 | 0.00 | 97 | 1009.2 |
| 20260506110500 | 74 | 155 | 0.9 | 2.6 | 0.00 | 0.00 | 0.00 | 97 | 1009.0 |
| 20260506105957 | 74 | 135 | 1.7 | 2.6 | 0.00 | 0.00 | 0.00 | 97 | 1009.1 |
| 20260506105453 | 74 | 148 | 0.0 | 0.9 | 0.00 | 0.00 | 0.00 | 96 | 1008.9 |
| 20260506104951 | 74 | 134 | 0.0 | 2.6 | 0.00 | 0.00 | 0.00 | 96 | 1008.9 |
| 20260506104449 | 74 | 145 | 0.9 | 3.5 | 0.00 | 0.00 | 0.00 | 96 | 1008.9 |
| 20260506103947 | 74 | 139 | 0.0 | 2.6 | 0.00 | 0.00 | 0.00 | 96 | 1008.7 |
| 20260506103443 | 74 | 129 | 2.6 | 3.5 | 0.00 | 0.00 | 0.00 | 96 | 1008.7 |
| 20260506102940 | 74 | 178 | 3.5 | 6.1 | 0.00 | 0.00 | 0.00 | 96 | 1008.6 |
| 20260506102438 | 74 | 159 | 0.9 | 3.5 | 0.00 | 0.00 | 0.00 | 96 | 1008.7 |
| 20260506101935 | 74 | 175 | 1.7 | 7.0 | 0.00 | 0.00 | 0.00 | 96 | 1008.5 |
| 20260506101431 | 74 | 136 | 2.6 | 6.1 | 0.00 | 0.00 | 0.00 | 96 | 1008.7 |
| 20260506100929 | 74 | 110 | 0.9 | 1.7 | 0.00 | 0.00 | 0.00 | 96 | 1008.6 |
| 20260506100427 | 74 | 158 | 1.7 | 2.6 | 0.00 | 0.00 | 0.00 | 96 | 1008.6 |
| 20260506095925 | 74 | 166 | 1.7 | 8.7 | 0.00 | 0.00 | 0.00 | 96 | 1008.6 |
| 20260506095423 | 74 | 159 | 4.3 | 5.2 | 0.00 | 0.00 | 0.00 | 96 | 1008.7 |
| 20260506094919 | 74 | 112 | 1.7 | 6.1 | 0.00 | 0.00 | 0.00 | 96 | 1008.6 |
| 20260506094418 | 74 | 133 | 0.9 | 6.1 | 0.00 | 0.00 | 0.00 | 96 | 1008.4 |
| 20260506093915 | 74 | 158 | 1.7 | 3.5 | 0.00 | 0.00 | 0.00 | 96 | 1008.5 |
| 20260506093413 | 74 | 148 | 3.5 | 3.5 | 0.00 | 0.00 | 0.00 | 96 | 1008.4 |
| 20260506092910 | 74 | 133 | 0.9 | 2.6 | 0.00 | 0.00 | 0.00 | 96 | 1008.6 |
| 20260506092408 | 74 | 143 | 0.9 | 3.5 | 0.00 | 0.00 | 0.00 | 96 | 1008.4 |
| 20260506091904 | 74 | 89 | 1.7 | 6.1 | 0.00 | 0.00 | 0.00 | 96 | 1008.6 |
| 20260506091403 | 74 | 187 | 0.9 | 5.2 | 0.00 | 0.00 | 0.00 | 96 | 1008.4 |
| 20260506090859 | 74 | 153 | 3.5 | 7.8 | 0.00 | 0.00 | 0.00 | 96 | 1008.4 |
| 20260506090357 | 74 | 131 | 3.5 | 6.1 | 0.00 | 0.00 | 0.00 | 96 | 1008.4 |
| 20260506085854 | 74 | 136 | 2.6 | 5.2 | 0.00 | 0.00 | 0.00 | 96 | 1008.4 |
| 20260506085350 | 74 | 111 | 0.9 | 5.2 | 0.00 | 0.00 | 0.00 | 96 | 1008.3 |
| 20260506084847 | 74 | 163 | 4.3 | 6.1 | 0.00 | 0.00 | 0.00 | 96 | 1008.1 |
| 20260506084343 | 74 | 133 | 0.9 | 3.5 | 0.00 | 0.00 | 0.00 | 95 | 1008.4 |
| 20260506083840 | 74 | 221 | 3.5 | 6.1 | 0.00 | 0.00 | 0.00 | 95 | 1008.5 |
| 20260506083338 | 74 | 165 | 1.7 | 5.2 | 0.00 | 0.00 | 0.00 | 95 | 1008.3 |
| 20260506082835 | 74 | 121 | 2.6 | 7.0 | 0.00 | 0.00 | 0.00 | 95 | 1008.5 |
| 20260506082331 | 74 | 172 | 1.7 | 6.1 | 0.00 | 0.00 | 0.00 | 95 | 1008.5 |
| 20260506081827 | 74 | 137 | 3.5 | 5.2 | 0.00 | 0.00 | 0.00 | 95 | 1008.6 |
| 20260506081326 | 74 | 134 | 2.6 | 5.2 | 0.00 | 0.00 | 0.00 | 95 | 1008.4 |
| 20260506080823 | 74 | 162 | 1.7 | 2.6 | 0.00 | 0.00 | 0.00 | 95 | 1008.4 |
| 20260506080319 | 74 | 130 | 1.7 | 6.1 | 0.00 | 0.00 | 0.00 | 95 | 1008.4 |
| 20260506073303 | 74 | 145 | 1.7 | 2.6 | 0.00 | 0.00 | 0.00 | 95 | 1009.1 |
| 20260506072800 | 74 | 161 | 0.9 | 1.7 | 0.00 | 0.00 | 0.00 | 95 | 1009.2 |
| 20260506072258 | 74 | 126 | 0.9 | 2.6 | 0.00 | 0.00 | 0.00 | 95 | 1009.2 |
| 20260506071755 | 74 | 150 | 0.9 | 2.6 | 0.00 | 0.00 | 0.00 | 95 | 1009.1 |
| 20260506071253 | 74 | 134 | 0.0 | 6.1 | 0.00 | 0.00 | 0.00 | 95 | 1009.2 |
| 20260506070750 | 74 | 120 | 0.9 | 3.5 | 0.00 | 0.00 | 0.00 | 95 | 1009.1 |
| 20260506070247 | 74 | 178 | 1.7 | 1.7 | 0.00 | 0.00 | 0.00 | 95 | 1009.1 |
| 20260506062224 | 74 | 138 | 2.6 | 6.1 | 0.00 | 0.00 | 0.00 | 94 | 1009.3 |
| 20260506061720 | 75 | 125 | 2.6 | 3.5 | 0.00 | 0.00 | 0.00 | 94 | 1009.3 |
| 20260506061217 | 75 | 151 | 0.9 | 2.6 | 0.00 | 0.00 | 0.00 | 94 | 1009.4 |
| 20260506060716 | 75 | 117 | 0.9 | 2.6 | 0.00 | 0.00 | 0.00 | 94 | 1009.6 |
| 20260506060212 | 75 | 128 | 1.7 | 5.2 | 0.00 | 0.00 | 0.00 | 94 | 1009.4 |
| 20260506051144 | 75 | 190 | 2.6 | 6.1 | 0.00 | 0.00 | 0.00 | 92 | 1009.6 |
| 20260506050643 | 75 | 131 | 1.7 | 5.2 | 0.00 | 0.00 | 0.00 | 92 | 1009.5 |
| 20260506050139 | 75 | 134 | 2.6 | 2.6 | 0.00 | 0.00 | 0.00 | 92 | 1009.5 |
| 20260506045132 | 75 | 190 | 3.5 | 6.1 | 0.00 | 0.00 | 0.00 | 92 | 1009.5 |
| 20260506044631 | 75 | 159 | 1.7 | 3.5 | 0.00 | 0.00 | 0.00 | 92 | 1009.8 |
| 20260506044127 | 76 | 160 | 1.7 | 5.2 | 0.00 | 0.00 | 0.00 | 91 | 1009.7 |
| 20260506043624 | 76 | 117 | 1.7 | 6.1 | 0.00 | 0.00 | 0.00 | 91 | 1009.6 |
| 20260506043123 | 76 | 144 | 7.8 | 9.6 | 0.00 | 0.00 | 0.00 | 91 | 1009.5 |
| 20260506042621 | 76 | 130 | 5.2 | 7.8 | 0.00 | 0.00 | 0.00 | 91 | 1009.3 |
| 20260506042119 | 76 | 124 | 3.5 | 6.1 | 0.00 | 0.00 | 0.00 | 91 | 1009.4 |
| 20260506041618 | 76 | 152 | 1.7 | 5.2 | 0.00 | 0.00 | 0.00 | 91 | 1009.4 |
| 20260506041114 | 76 | 108 | 1.7 | 3.5 | 0.00 | 0.00 | 0.00 | 91 | 1009.3 |
| 20260506040612 | 76 | 140 | 0.9 | 3.5 | 0.00 | 0.00 | 0.00 | 91 | 1009.5 |
| 20260506040108 | 76 | 153 | 3.5 | 7.0 | 0.00 | 0.00 | 0.00 | 90 | 1009.3 |
| 20260506035605 | 76 | 137 | 2.6 | 3.5 | 0.00 | 0.00 | 0.00 | 90 | 1009.5 |
| 20260506035101 | 76 | 157 | 2.6 | 6.1 | 0.00 | 0.00 | 0.00 | 90 | 1009.4 |
| 20260506034559 | 76 | 148 | 1.7 | 2.6 | 0.00 | 0.00 | 0.00 | 90 | 1009.5 |
| 20260506034056 | 76 | 164 | 1.7 | 7.0 | 0.00 | 0.00 | 0.00 | 90 | 1009.4 |
| 20260506033553 | 76 | 117 | 4.3 | 6.1 | 0.00 | 0.00 | 0.00 | 90 | 1009.4 |
| 20260506033050 | 76 | 134 | 2.6 | 5.2 | 0.00 | 0.00 | 0.00 | 90 | 1009.2 |
| 20260506032547 | 76 | 135 | 4.3 | 6.1 | 0.00 | 0.00 | 0.00 | 90 | 1009.1 |
| 20260506032044 | 76 | 130 | 1.7 | 3.5 | 0.00 | 0.00 | 0.00 | 90 | 1008.9 |
| 20260506031542 | 76 | 138 | 0.9 | 5.2 | 0.00 | 0.00 | 0.00 | 90 | 1009.0 |
| 20260506031038 | 76 | 122 | 0.9 | 3.5 | 0.00 | 0.00 | 0.00 | 90 | 1009.2 |
| 20260506030536 | 76 | 170 | 1.7 | 3.5 | 0.00 | 0.00 | 0.00 | 90 | 1009.1 |
| 20260506030033 | 76 | 166 | 4.3 | 5.2 | 0.00 | 0.00 | 0.00 | 90 | 1008.8 |
| 20260506025530 | 76 | 148 | 2.6 | 3.5 | 0.00 | 0.00 | 0.00 | 90 | 1008.9 |
| 20260506025026 | 76 | 140 | 0.9 | 3.5 | 0.00 | 0.00 | 0.00 | 90 | 1008.8 |
| 20260506024523 | 76 | 139 | 1.7 | 2.6 | 0.00 | 0.00 | 0.00 | 90 | 1008.8 |
| 20260506024020 | 76 | 162 | 1.7 | 2.6 | 0.00 | 0.00 | 0.00 | 90 | 1008.5 |
| 20260506023516 | 76 | 127 | 0.9 | 2.6 | 0.00 | 0.00 | 0.00 | 90 | 1008.4 |
| 20260506023014 | 76 | 172 | 2.6 | 6.1 | 0.00 | 0.00 | 0.00 | 90 | 1008.4 |
| 20260506022511 | 77 | 213 | 1.7 | 3.5 | 0.00 | 0.00 | 0.00 | 90 | 1008.4 |
| 20260506022008 | 77 | 206 | 0.9 | 6.1 | 0.00 | 0.00 | 0.00 | 89 | 1008.3 |
| 20260506021506 | 77 | 156 | 3.5 | 7.0 | 0.00 | 0.00 | 0.00 | 89 | 1008.1 |
| 20260506021003 | 77 | 143 | 1.7 | 5.2 | 0.00 | 0.00 | 0.00 | 89 | 1008.2 |
| 20260506020500 | 77 | 160 | 3.5 | 9.6 | 0.00 | 0.00 | 0.00 | 89 | 1008.1 |
| 20260506015957 | 77 | 142 | 5.2 | 7.8 | 0.00 | 0.00 | 0.00 | 89 | 1008.0 |
| 20260506015455 | 77 | 167 | 1.7 | 5.2 | 0.00 | 0.00 | 0.00 | 89 | 1007.9 |
| 20260506014951 | 77 | 132 | 4.3 | 8.7 | 0.00 | 0.00 | 0.00 | 89 | 1007.8 |
| 20260506014448 | 77 | 137 | 3.5 | 6.1 | 0.00 | 0.00 | 0.00 | 88 | 1007.8 |
| 20260506013944 | 77 | 138 | 3.5 | 8.7 | 0.00 | 0.00 | 0.00 | 88 | 1007.7 |
| 20260506013443 | 77 | 186 | 2.6 | 7.0 | 0.00 | 0.00 | 0.00 | 88 | 1007.6 |
| 20260506012939 | 77 | 134 | 4.3 | 6.1 | 0.00 | 0.00 | 0.00 | 88 | 1007.5 |
| 20260506012435 | 77 | 158 | 3.5 | 7.0 | 0.00 | 0.00 | 0.00 | 87 | 1007.5 |
| 20260506011932 | 77 | 155 | 3.5 | 5.2 | 0.00 | 0.00 | 0.00 | 87 | 1007.4 |
| 20260506011430 | 77 | 133 | 4.3 | 8.7 | 0.00 | 0.00 | 0.00 | 87 | 1007.3 |
| 20260506010926 | 78 | 137 | 1.7 | 9.6 | 0.00 | 0.00 | 0.00 | 86 | 1007.4 |
| 20260506010426 | 78 | 209 | 3.5 | 6.1 | 0.00 | 0.00 | 0.00 | 86 | 1007.3 |
| 20260506005921 | 78 | 161 | 5.2 | 7.8 | 0.00 | 0.00 | 0.00 | 86 | 1007.3 |
| 20260506005419 | 78 | 141 | 3.5 | 7.8 | 0.00 | 0.00 | 0.00 | 85 | 1007.0 |
| 20260506004914 | 78 | 112 | 1.7 | 6.1 | 0.00 | 0.00 | 0.00 | 85 | 1007.0 |
| 20260506004413 | 78 | 116 | 4.3 | 6.1 | 0.00 | 0.00 | 0.00 | 85 | 1007.0 |
| 20260506003908 | 78 | 131 | 4.3 | 7.8 | 0.00 | 0.00 | 0.00 | 84 | 1006.9 |
| 20260506003404 | 78 | 127 | 1.7 | 7.0 | 0.00 | 0.00 | 0.00 | 83 | 1006.9 |
| 20260506002901 | 79 | 94 | 2.6 | 5.2 | 0.00 | 0.00 | 0.00 | 82 | 1006.9 |
| 20260506002357 | 79 | 136 | 2.6 | 5.2 | 0.00 | 0.00 | 0.00 | 82 | 1006.9 |
| 20260506001853 | 79 | 120 | 0.9 | 2.6 | 0.00 | 0.00 | 0.00 | 82 | 1007.0 |
| 20260506001350 | 79 | 186 | 0.9 | 3.5 | 0.00 | 0.00 | 0.00 | 82 | 1007.0 |
| 20260506000847 | 79 | 107 | 0.0 | 5.2 | 0.00 | 0.00 | 0.00 | 82 | 1006.9 |
| 20260506000346 | 79 | 177 | 0.9 | 5.2 | 0.00 | 0.00 | 0.00 | 81 | 1006.8 |
| 20260505235841 | 80 | 126 | 2.6 | 8.7 | 0.00 | 0.00 | 0.00 | 81 | 1006.9 |
| 20260505235339 | 80 | 299 | 1.7 | 7.0 | 0.00 | 0.00 | 0.00 | 80 | 1006.8 |
| 20260505234836 | 80 | 144 | 5.2 | 7.8 | 0.00 | 0.00 | 0.00 | 80 | 1006.7 |
| 20260505234334 | 80 | 124 | 3.5 | 9.6 | 0.00 | 0.00 | 0.00 | 80 | 1006.6 |
| 20260505233830 | 80 | 128 | 1.7 | 8.7 | 0.00 | 0.00 | 0.00 | 80 | 1006.6 |
| 20260505233328 | 80 | 118 | 3.5 | 11.3 | 0.00 | 0.00 | 0.00 | 79 | 1006.6 |
| 20260505232825 | 80 | 137 | 4.3 | 7.0 | 0.00 | 0.00 | 0.00 | 79 | 1006.7 |
| 20260505232323 | 80 | 141 | 0.9 | 7.8 | 0.00 | 0.00 | 0.00 | 79 | 1006.5 |
| 20260505231819 | 81 | 167 | 5.2 | 11.3 | 0.00 | 0.00 | 0.00 | 78 | 1006.5 |
| 20260505231318 | 81 | 148 | 3.5 | 8.7 | 0.00 | 0.00 | 0.00 | 78 | 1006.6 |
| 20260505230815 | 82 | 294 | 1.7 | 6.1 | 0.00 | 0.00 | 0.00 | 76 | 1006.6 |
| 20260505230312 | 82 | 188 | 2.6 | 6.1 | 0.00 | 0.00 | 0.00 | 77 | 1006.5 |
| 20260505225809 | 82 | 132 | 6.1 | 8.7 | 0.00 | 0.00 | 0.00 | 77 | 1006.7 |
| 20260505225306 | 82 | 102 | 5.2 | 6.1 | 0.00 | 0.00 | 0.00 | 77 | 1006.6 |
| 20260505224801 | 82 | 225 | 1.7 | 3.5 | 0.00 | 0.00 | 0.00 | 77 | 1006.6 |
| 20260505224259 | 82 | 142 | 4.3 | 11.3 | 0.00 | 0.00 | 0.00 | 77 | 1006.4 |
| 20260505223756 | 82 | 251 | 2.6 | 5.2 | 0.00 | 0.00 | 0.00 | 78 | 1006.3 |
| 20260505223253 | 83 | 112 | 3.5 | 7.8 | 0.00 | 0.00 | 0.00 | 76 | 1006.5 |
| 20260505222748 | 83 | 151 | 2.6 | 6.1 | 0.00 | 0.00 | 0.00 | 76 | 1006.6 |
| 20260505222245 | 83 | 157 | 4.3 | 9.6 | 0.00 | 0.00 | 0.00 | 74 | 1006.5 |
| 20260505221742 | 83 | 204 | 5.2 | 11.3 | 0.00 | 0.00 | 0.00 | 75 | 1006.6 |
| 20260505221239 | 83 | 177 | 1.7 | 5.2 | 0.00 | 0.00 | 0.00 | 74 | 1006.6 |
| 20260505220735 | 83 | 122 | 2.6 | 7.0 | 0.00 | 0.00 | 0.00 | 75 | 1006.7 |
| 20260505220233 | 83 | 228 | 4.3 | 7.0 | 0.00 | 0.00 | 0.00 | 74 | 1006.6 |
| 20260505215731 | 84 | 129 | 3.5 | 7.8 | 0.00 | 0.00 | 0.00 | 74 | 1006.6 |
| 20260505215229 | 84 | 111 | 2.6 | 7.0 | 0.00 | 0.00 | 0.00 | 71 | 1006.9 |
| 20260505214726 | 84 | 120 | 2.6 | 7.0 | 0.00 | 0.00 | 0.00 | 74 | 1006.8 |
| 20260505214224 | 85 | 211 | 3.5 | 6.1 | 0.00 | 0.00 | 0.00 | 73 | 1006.7 |
| 20260505213721 | 84 | 145 | 2.6 | 5.2 | 0.00 | 0.00 | 0.00 | 74 | 1006.7 |
| 20260505213218 | 84 | 269 | 1.7 | 8.7 | 0.00 | 0.00 | 0.00 | 74 | 1007.0 |
| 20260505212714 | 84 | 226 | 3.5 | 7.8 | 0.00 | 0.00 | 0.00 | 76 | 1007.2 |
| 20260505212211 | 83 | 130 | 1.7 | 8.7 | 0.00 | 0.00 | 0.00 | 75 | 1007.2 |
| 20260505211708 | 83 | 199 | 7.0 | 9.6 | 0.00 | 0.00 | 0.00 | 76 | 1007.2 |
| 20260505211205 | 84 | 178 | 5.2 | 12.2 | 0.00 | 0.00 | 0.00 | 73 | 1007.2 |
| 20260505210702 | 84 | 168 | 3.5 | 6.1 | 0.00 | 0.00 | 0.00 | 75 | 1007.4 |
| 20260505210159 | 85 | 94 | 2.6 | 7.8 | 0.00 | 0.00 | 0.00 | 75 | 1007.3 |
| 20260505205656 | 85 | 151 | 2.6 | 7.0 | 0.00 | 0.00 | 0.00 | 72 | 1007.6 |
| 20260505205154 | 84 | 163 | 1.7 | 7.0 | 0.00 | 0.00 | 0.00 | 76 | 1007.7 |
| 20260505204650 | 84 | 127 | 1.7 | 9.6 | 0.00 | 0.00 | 0.00 | 76 | 1007.8 |
| 20260505204148 | 85 | 138 | 5.2 | 9.6 | 0.00 | 0.00 | 0.00 | 71 | 1008.0 |
| 20260505203645 | 85 | 155 | 1.7 | 6.1 | 0.00 | 0.00 | 0.00 | 73 | 1008.0 |
| 20260505203142 | 84 | 133 | 1.7 | 6.1 | 0.00 | 0.00 | 0.00 | 75 | 1008.0 |
| 20260505202638 | 84 | 188 | 3.5 | 6.1 | 0.00 | 0.00 | 0.00 | 73 | 1008.1 |
| 20260505202134 | 84 | 108 | 3.5 | 6.1 | 0.00 | 0.00 | 0.00 | 74 | 1008.0 |
| 20260505201631 | 83 | 162 | 3.5 | 7.0 | 0.00 | 0.00 | 0.00 | 74 | 1008.2 |
| 20260505201129 | 83 | 175 | 7.0 | 9.6 | 0.00 | 0.00 | 0.00 | 74 | 1008.2 |
| 20260505200626 | 83 | 307 | 1.7 | 5.2 | 0.00 | 0.00 | 0.00 | 74 | 1008.5 |
| 20260505200123 | 84 | 195 | 0.9 | 7.8 | 0.00 | 0.00 | 0.00 | 73 | 1008.3 |
| 20260505195619 | 84 | 129 | 0.9 | 7.0 | 0.00 | 0.00 | 0.00 | 75 | 1008.4 |
| 20260505195117 | 83 | 141 | 0.9 | 2.6 | 0.00 | 0.00 | 0.00 | 77 | 1008.6 |
| 20260505194614 | 83 | 110 | 1.7 | 9.6 | 0.00 | 0.00 | 0.00 | 76 | 1008.8 |
| 20260505194109 | 84 | 120 | 1.7 | 8.7 | 0.00 | 0.00 | 0.00 | 74 | 1008.7 |
| 20260505193607 | 85 | 158 | 2.6 | 7.0 | 0.00 | 0.00 | 0.00 | 71 | 1008.8 |
| 20260505193104 | 85 | 229 | 4.3 | 7.0 | 0.00 | 0.00 | 0.00 | 71 | 1008.8 |
| 20260505192603 | 84 | 89 | 2.6 | 7.8 | 0.00 | 0.00 | 0.00 | 77 | 1008.7 |
| 20260505192100 | 82 | 173 | 2.6 | 5.2 | 0.00 | 0.00 | 0.00 | 80 | 1008.7 |
| 20260505191558 | 83 | 135 | 1.7 | 5.2 | 0.00 | 0.00 | 0.00 | 77 | 1009.1 |
| 20260505191056 | 83 | 124 | 0.9 | 1.7 | 0.00 | 0.00 | 0.00 | 75 | 1009.0 |
| 20260505190555 | 84 | 133 | 1.7 | 5.2 | 0.00 | 0.00 | 0.00 | 75 | 1008.9 |
| 20260505190052 | 84 | 211 | 1.7 | 3.5 | 0.00 | 0.00 | 0.00 | 75 | 1009.2 |
| 20260505185549 | 84 | 182 | 2.6 | 5.2 | 0.00 | 0.00 | 0.00 | 74 | 1009.0 |
| 20260505185045 | 85 | 225 | 1.7 | 5.2 | 0.00 | 0.00 | 0.00 | 74 | 1009.1 |
| 20260505184542 | 83 | 225 | 1.7 | 5.2 | 0.00 | 0.00 | 0.00 | 79 | 1009.2 |
| 20260505184039 | 82 | 213 | 3.5 | 5.2 | 0.00 | 0.00 | 0.00 | 78 | 1009.0 |
| 20260505183535 | 82 | 113 | 2.6 | 5.2 | 0.00 | 0.00 | 0.00 | 79 | 1009.4 |
| 20260505183033 | 81 | 185 | 2.6 | 7.8 | 0.00 | 0.00 | 0.00 | 80 | 1009.3 |
| 20260505182529 | 80 | 147 | 2.6 | 3.5 | 0.00 | 0.00 | 0.00 | 81 | 1009.3 |
| 20260505182026 | 80 | 102 | 0.9 | 5.2 | 0.00 | 0.00 | 0.00 | 81 | 1009.4 |
| 20260505181522 | 80 | 197 | 0.9 | 2.6 | 0.00 | 0.00 | 0.00 | 81 | 1009.5 |
| 20260505181020 | 80 | 133 | 3.5 | 7.0 | 0.00 | 0.00 | 0.00 | 80 | 1009.5 |
| 20260505180515 | 81 | 142 | 2.6 | 5.2 | 0.00 | 0.00 | 0.00 | 79 | 1009.4 |
| 20260505180014 | 81 | 152 | 1.7 | 6.1 | 0.00 | 0.00 | 0.00 | 80 | 1009.4 |
| 20260505175508 | 80 | 228 | 1.7 | 2.6 | 0.00 | 0.00 | 0.00 | 82 | 1009.5 |
| 20260505175006 | 80 | 222 | 1.7 | 5.2 | 0.00 | 0.00 | 0.00 | 79 | 1009.5 |
| 20260505174503 | 80 | 206 | 2.6 | 7.8 | 0.00 | 0.00 | 0.00 | 80 | 1009.6 |
| 20260505173959 | 80 | 229 | 1.7 | 6.1 | 0.00 | 0.00 | 0.00 | 80 | 1009.8 |
| 20260505173455 | 80 | 233 | 1.7 | 5.2 | 0.00 | 0.00 | 0.00 | 80 | 1009.8 |
| 20260505172952 | 81 | 191 | 3.5 | 5.2 | 0.00 | 0.00 | 0.00 | 78 | 1009.8 |
| 20260505172451 | 82 | 247 | 2.6 | 5.2 | 0.00 | 0.00 | 0.00 | 78 | 1009.7 |
| 20260505171950 | 80 | 226 | 2.6 | 6.1 | 0.00 | 0.00 | 0.00 | 80 | 1009.7 |
| 20260505171447 | 79 | 225 | 1.7 | 3.5 | 0.00 | 0.00 | 0.00 | 82 | 1009.6 |
| 20260505170944 | 79 | 213 | 3.5 | 6.1 | 0.00 | 0.00 | 0.00 | 81 | 1009.7 |
| 20260505170440 | 79 | 214 | 2.6 | 5.2 | 0.00 | 0.00 | 0.00 | 81 | 1009.7 |
| 20260505165936 | 79 | 198 | 5.2 | 7.8 | 0.00 | 0.00 | 0.00 | 81 | 1009.9 |
| 20260505165432 | 79 | 211 | 3.5 | 9.6 | 0.00 | 0.00 | 0.00 | 81 | 1009.7 |
| 20260505164927 | 78 | 107 | 5.2 | 7.0 | 0.00 | 0.00 | 0.00 | 82 | 1009.8 |
| 20260505164424 | 78 | 157 | 1.7 | 6.1 | 0.00 | 0.00 | 0.00 | 82 | 1009.7 |
| 20260505163922 | 78 | 223 | 1.7 | 6.1 | 0.00 | 0.00 | 0.00 | 82 | 1009.9 |
| 20260505163421 | 78 | 224 | 2.6 | 5.2 | 0.00 | 0.00 | 0.00 | 83 | 1010.0 |
| 20260505162920 | 78 | 142 | 2.6 | 5.2 | 0.00 | 0.00 | 0.00 | 83 | 1009.9 |
| 20260505162415 | 78 | 168 | 3.5 | 7.0 | 0.00 | 0.00 | 0.00 | 84 | 1010.1 |
| 20260505161912 | 78 | 208 | 3.5 | 7.0 | 0.00 | 0.00 | 0.00 | 83 | 1009.8 |
| 20260505161409 | 78 | 220 | 2.6 | 7.0 | 0.00 | 0.00 | 0.00 | 83 | 1010.1 |
| 20260505160906 | 78 | 225 | 0.9 | 5.2 | 0.00 | 0.00 | 0.00 | 86 | 1009.8 |
| 20260505160404 | 77 | 234 | 1.7 | 6.1 | 0.00 | 0.00 | 0.00 | 85 | 1009.8 |
| 20260505153343 | 77 | 119 | 0.9 | 2.6 | 0.00 | 0.00 | 0.00 | 87 | 1010.0 |
| 20260505152840 | 77 | 105 | 0.9 | 2.6 | 0.00 | 0.00 | 0.00 | 86 | 1009.9 |
| 20260505152338 | 77 | 125 | 2.6 | 6.1 | 0.00 | 0.00 | 0.00 | 86 | 1009.9 |
| 20260505151837 | 77 | 172 | 1.7 | 3.5 | 0.00 | 0.00 | 0.00 | 87 | 1009.8 |
| 20260505151334 | 77 | 155 | 1.7 | 5.2 | 0.00 | 0.00 | 0.00 | 88 | 1009.7 |
| 20260505150831 | 76 | 233 | 0.0 | 3.5 | 0.00 | 0.00 | 0.00 | 89 | 1009.6 |
| 20260505150329 | 76 | 145 | 1.7 | 7.0 | 0.00 | 0.00 | 0.00 | 89 | 1009.6 |
| 20260505140258 | 73 | 200 | 1.7 | 5.2 | 0.00 | 0.00 | 0.00 | 93 | 1009.3 |
| 20260505130222 | 71 | 175 | 0.9 | 2.6 | 0.00 | 0.00 | 0.00 | 96 | 1009.4 |